SJX804 RCTP-RJAA

Flight info

Callsign SJX804
Flight time 2h 34m
Altitude 37000
Route MOLKA1A MOLKA M750 MUKEP Y891 AGIMO Y89 GUPER Y81 RUTAS
Aircraft A359/H-SDE2E3GHIJ3J4J5LM1ORWXY/LB1D1

Departure

Time 2026-05-05 05:36
Airport Taiwan Taoyuan International Airport (RCTP)

Arrival

Time 2026-05-05 08:11
Airport Narita International Airport (RJAA)
Time Latitude Longitude Altitude Speed Heading
2026-05-05 04:50 25.07467 121.23263 107 ft 0 kts 319°
2026-05-05 05:25 25.07462 121.23268 104 ft 4 kts 319°
2026-05-05 05:26 25.07441 121.23288 105 ft 4 kts 319°
2026-05-05 05:26 25.07420 121.23307 104 ft 4 kts 319°
2026-05-05 05:26 25.07400 121.23326 104 ft 4 kts 319°
2026-05-05 05:26 25.07384 121.23341 105 ft 4 kts 294°
2026-05-05 05:27 25.07388 121.23362 104 ft 4 kts 231°
2026-05-05 05:27 25.07404 121.23383 104 ft 4 kts 229°
2026-05-05 05:27 25.07415 121.23397 106 ft 4 kts 229°
2026-05-05 05:30 25.07397 121.23374 104 ft 8 kts 230°
2026-05-05 05:30 25.07343 121.23303 105 ft 16 kts 230°
2026-05-05 05:30 25.07274 121.23216 105 ft 9 kts 225°
2026-05-05 05:31 25.07208 121.23197 106 ft 11 kts 166°
2026-05-05 05:31 25.07135 121.23248 105 ft 14 kts 142°
2026-05-05 05:31 25.07046 121.23248 105 ft 15 kts 218°
2026-05-05 05:31 25.06970 121.23158 105 ft 18 kts 229°
2026-05-05 05:32 25.06884 121.23050 106 ft 20 kts 230°
2026-05-05 05:32 25.06788 121.22927 105 ft 22 kts 229°
2026-05-05 05:32 25.06681 121.22792 105 ft 25 kts 229°
2026-05-05 05:32 25.06564 121.22643 106 ft 27 kts 229°
2026-05-05 05:33 25.06438 121.22484 106 ft 28 kts 229°
2026-05-05 05:33 25.06352 121.22373 105 ft 17 kts 229°
2026-05-05 05:33 25.06270 121.22272 106 ft 17 kts 224°
2026-05-05 05:33 25.06172 121.22283 105 ft 16 kts 142°
2026-05-05 05:34 25.06107 121.22356 105 ft 10 kts 111°
2026-05-05 05:34 25.06133 121.22416 104 ft 10 kts 49°
2026-05-05 05:34 25.06153 121.22442 104 ft 0 kts 50°
2026-05-05 05:35 25.06206 121.22510 103 ft 42 kts 49°
2026-05-05 05:36 25.06569 121.22971 103 ft 116 kts 49°
2026-05-05 05:36 25.07243 121.23813 123 ft 172 kts 49°
2026-05-05 05:36 25.08041 121.24807 791 ft 176 kts 50°
2026-05-05 05:36 25.08783 121.25901 1468 ft 184 kts 63°
2026-05-05 05:37 25.09591 121.27110 1866 ft 205 kts 51°
2026-05-05 05:37 25.10562 121.28313 2466 ft 212 kts 51°
2026-05-05 05:37 25.11563 121.29558 3022 ft 222 kts 50°
2026-05-05 05:37 25.12450 121.31046 3389 ft 246 kts 64°
2026-05-05 05:38 25.13160 121.32867 3783 ft 266 kts 70°
2026-05-05 05:38 25.13830 121.34817 4507 ft 276 kts 70°
2026-05-05 05:38 25.14510 121.36844 5199 ft 285 kts 70°
2026-05-05 05:38 25.15198 121.38919 5975 ft 291 kts 71°
2026-05-05 05:39 25.15897 121.41034 6777 ft 296 kts 71°
2026-05-05 05:39 25.16611 121.43196 7577 ft 303 kts 71°
2026-05-05 05:39 25.17326 121.45367 8454 ft 307 kts 71°
2026-05-05 05:39 25.18067 121.47619 9294 ft 315 kts 71°
2026-05-05 05:40 25.18825 121.49921 10113 ft 322 kts 71°
2026-05-05 05:40 25.19608 121.52304 10649 ft 342 kts 70°
2026-05-05 05:40 25.20424 121.54859 10981 ft 362 kts 71°
2026-05-05 05:40 25.21289 121.57533 11409 ft 377 kts 70°
2026-05-05 05:41 25.22211 121.60275 12052 ft 383 kts 70°
2026-05-05 05:41 25.23129 121.63054 12739 ft 389 kts 70°
2026-05-05 05:41 25.24061 121.65886 13473 ft 395 kts 70°
2026-05-05 05:41 25.25005 121.68758 14125 ft 400 kts 71°
2026-05-05 05:42 25.25955 121.71664 14846 ft 405 kts 70°
2026-05-05 05:42 25.26911 121.74622 15614 ft 412 kts 71°
2026-05-05 05:42 25.27879 121.77621 16436 ft 416 kts 71°
2026-05-05 05:42 25.28871 121.80651 17290 ft 422 kts 70°
2026-05-05 05:43 25.29878 121.83728 18019 ft 429 kts 70°
2026-05-05 05:43 25.30900 121.86842 18638 ft 435 kts 70°
2026-05-05 05:43 25.31942 121.90019 19223 ft 442 kts 70°
2026-05-05 05:43 25.32994 121.93236 19777 ft 448 kts 70°
2026-05-05 05:44 25.34057 121.96501 20327 ft 455 kts 70°
2026-05-05 05:44 25.35133 121.99812 20931 ft 460 kts 70°
2026-05-05 05:44 25.36211 122.03123 21491 ft 467 kts 70°
2026-05-05 05:44 25.37315 122.06521 22080 ft 473 kts 70°
2026-05-05 05:45 25.38441 122.10000 22800 ft 477 kts 70°
2026-05-05 05:45 25.39562 122.13454 23280 ft 487 kts 71°
2026-05-05 05:45 25.40713 122.17013 23738 ft 497 kts 71°
2026-05-05 05:45 25.41875 122.20639 24377 ft 501 kts 70°
2026-05-05 05:46 25.43065 122.24249 24994 ft 500 kts 70°
2026-05-05 05:46 25.44292 122.27872 25518 ft 503 kts 70°
2026-05-05 05:46 25.45524 122.31514 25995 ft 507 kts 70°
2026-05-05 05:46 25.46760 122.35176 26483 ft 510 kts 70°
2026-05-05 05:47 25.48001 122.38865 27067 ft 512 kts 70°
2026-05-05 05:47 25.49319 122.42543 27528 ft 515 kts 65°
2026-05-05 05:47 25.51127 122.45980 27992 ft 518 kts 52°
2026-05-05 05:47 25.53340 122.49140 28448 ft 520 kts 48°
2026-05-05 05:48 25.55653 122.52235 28978 ft 524 kts 47°
2026-05-05 05:48 25.57978 122.55312 29551 ft 531 kts 47°
2026-05-05 05:48 25.60374 122.58475 30079 ft 537 kts 48°
2026-05-05 05:48 25.62782 122.61662 30505 ft 540 kts 47°
2026-05-05 05:49 25.65196 122.64856 30975 ft 541 kts 47°
2026-05-05 05:49 25.67628 122.68074 31370 ft 544 kts 47°
2026-05-05 05:49 25.70064 122.71300 31699 ft 548 kts 47°
2026-05-05 05:49 25.72515 122.74545 32078 ft 551 kts 47°
2026-05-05 05:50 25.74988 122.77824 32441 ft 555 kts 47°
2026-05-05 05:50 25.77480 122.81130 32713 ft 559 kts 47°
2026-05-05 05:50 25.79980 122.84450 33034 ft 562 kts 47°
2026-05-05 05:50 25.81940 122.87055 33298 ft 564 kts 46°
2026-05-05 05:52 25.83657 122.89338 33489 ft 566 kts 47°
2026-05-05 05:52 25.86187 122.92703 33834 ft 568 kts 46°
2026-05-05 05:52 25.88397 122.95645 34090 ft 570 kts 46°
2026-05-05 05:53 25.89950 122.97714 34243 ft 571 kts 46°
2026-05-05 05:53 25.90811 122.98860 34329 ft 572 kts 46°
2026-05-05 05:54 25.91924 123.00344 34450 ft 572 kts 46°
2026-05-05 05:54 25.94461 123.03728 34865 ft 571 kts 47°
2026-05-05 05:54 25.96147 123.05978 35117 ft 570 kts 47°
2026-05-05 05:54 25.98686 123.09368 35476 ft 570 kts 47°
2026-05-05 05:55 26.01216 123.12749 35831 ft 569 kts 47°
2026-05-05 05:55 26.04562 123.17223 36250 ft 568 kts 46°
2026-05-05 05:55 26.07091 123.20609 36549 ft 569 kts 46°
2026-05-05 05:55 26.09617 123.23991 36874 ft 568 kts 46°
2026-05-05 05:56 26.11324 123.26279 37020 ft 569 kts 46°
2026-05-05 05:56 26.12890 123.28378 37094 ft 568 kts 46°
2026-05-05 05:57 26.14623 123.30702 37080 ft 568 kts 46°
2026-05-05 05:58 26.19674 123.37484 37068 ft 569 kts 47°
2026-05-05 05:58 26.24726 123.44278 37068 ft 570 kts 47°
2026-05-05 05:59 26.29767 123.51067 37073 ft 570 kts 47°
2026-05-05 05:59 26.34823 123.57887 37076 ft 571 kts 47°
2026-05-05 06:00 26.39889 123.64731 37072 ft 573 kts 47°
2026-05-05 06:00 26.44963 123.71597 37081 ft 572 kts 47°
2026-05-05 06:01 26.49992 123.78411 37081 ft 572 kts 47°
2026-05-05 06:01 26.55055 123.85281 37083 ft 573 kts 47°
2026-05-05 06:02 26.60124 123.92171 37082 ft 574 kts 47°
2026-05-05 06:02 26.65195 123.99076 37081 ft 574 kts 47°
2026-05-05 06:03 26.70291 124.05970 37084 ft 574 kts 46°
2026-05-05 06:03 26.75417 124.12803 37092 ft 573 kts 46°
2026-05-05 06:04 26.80543 124.19645 37086 ft 573 kts 46°
2026-05-05 06:04 26.85615 124.26448 37074 ft 573 kts 46°
2026-05-05 06:05 26.90729 124.33328 37091 ft 573 kts 46°
2026-05-05 06:05 26.95826 124.40196 37090 ft 574 kts 46°
2026-05-05 06:06 27.00912 124.47062 37090 ft 574 kts 46°
2026-05-05 06:06 27.06032 124.53974 37132 ft 574 kts 47°
2026-05-05 06:07 27.11136 124.60872 37100 ft 575 kts 47°
2026-05-05 06:07 27.16254 124.67802 37094 ft 576 kts 47°
2026-05-05 06:08 27.21331 124.74690 37082 ft 576 kts 47°
2026-05-05 06:08 27.26441 124.81635 37105 ft 576 kts 47°
2026-05-05 06:09 27.31553 124.88593 37101 ft 577 kts 47°
2026-05-05 06:09 27.36663 124.95558 37100 ft 577 kts 47°
2026-05-05 06:10 27.41779 125.02539 37127 ft 576 kts 47°
2026-05-05 06:10 27.46883 125.09428 37104 ft 577 kts 46°
2026-05-05 06:11 27.52029 125.16353 37102 ft 577 kts 46°
2026-05-05 06:11 27.57192 125.23325 37105 ft 577 kts 47°
2026-05-05 06:12 27.62328 125.30284 37111 ft 577 kts 47°
2026-05-05 06:12 27.67462 125.37253 37113 ft 577 kts 47°
2026-05-05 06:13 27.72563 125.44189 37104 ft 577 kts 47°
2026-05-05 06:13 27.77697 125.51180 37103 ft 577 kts 47°
2026-05-05 06:14 27.82825 125.58173 37110 ft 578 kts 47°
2026-05-05 06:14 27.87959 125.65188 37111 ft 578 kts 47°
2026-05-05 06:15 27.93077 125.72192 37111 ft 578 kts 47°
2026-05-05 06:15 27.98199 125.79213 37108 ft 579 kts 47°
2026-05-05 06:16 28.03291 125.86204 37113 ft 578 kts 47°
2026-05-05 06:16 28.08405 125.93237 37111 ft 578 kts 47°
2026-05-05 06:17 28.13522 126.00285 37120 ft 579 kts 47°
2026-05-05 06:17 28.18645 126.07353 37115 ft 581 kts 47°
2026-05-05 06:18 28.23770 126.14437 37113 ft 581 kts 47°
2026-05-05 06:18 28.28894 126.21531 37138 ft 581 kts 47°
2026-05-05 06:19 28.33988 126.28594 37109 ft 581 kts 48°
2026-05-05 06:19 28.39101 126.35697 37114 ft 580 kts 48°
2026-05-05 06:20 28.44202 126.42795 37116 ft 580 kts 48°
2026-05-05 06:20 28.49298 126.49897 37115 ft 580 kts 48°
2026-05-05 06:21 28.54386 126.57002 37113 ft 579 kts 48°
2026-05-05 06:21 28.59468 126.64108 37118 ft 578 kts 48°
2026-05-05 06:22 28.64547 126.71220 37115 ft 580 kts 48°
2026-05-05 06:22 28.69610 126.78323 37110 ft 581 kts 48°
2026-05-05 06:23 28.74693 126.85469 37113 ft 580 kts 48°
2026-05-05 06:23 28.79771 126.92620 37117 ft 580 kts 48°
2026-05-05 06:24 28.84847 126.99780 37096 ft 581 kts 48°
2026-05-05 06:24 28.89916 127.06942 37114 ft 580 kts 48°
2026-05-05 06:25 28.94992 127.14126 37126 ft 580 kts 48°
2026-05-05 06:25 29.00060 127.21310 37112 ft 582 kts 48°
2026-05-05 06:26 29.05125 127.28504 37110 ft 581 kts 48°
2026-05-05 06:26 29.10180 127.35698 37131 ft 580 kts 48°
2026-05-05 06:27 29.17732 127.46463 37112 ft 581 kts 48°
2026-05-05 06:28 29.22753 127.53639 37112 ft 580 kts 48°
2026-05-05 06:28 29.27800 127.60864 37123 ft 580 kts 49°
2026-05-05 06:29 29.32845 127.68096 37118 ft 581 kts 49°
2026-05-05 06:29 29.37883 127.75334 37108 ft 581 kts 48°
2026-05-05 06:30 29.42925 127.82588 37127 ft 581 kts 49°
2026-05-05 06:30 29.47971 127.89863 37112 ft 582 kts 49°
2026-05-05 06:31 29.52981 127.97099 37099 ft 582 kts 48°
2026-05-05 06:31 29.58007 128.04374 37127 ft 582 kts 49°
2026-05-05 06:32 29.63047 128.11662 37114 ft 583 kts 49°
2026-05-05 06:32 29.68088 128.18967 37118 ft 583 kts 49°
2026-05-05 06:33 29.73120 128.26276 37112 ft 582 kts 49°
2026-05-05 06:33 29.78141 128.33584 37115 ft 583 kts 49°
2026-05-05 06:34 29.83171 128.40919 37116 ft 583 kts 49°
2026-05-05 06:34 29.88195 128.48258 37139 ft 583 kts 49°
2026-05-05 06:35 29.93197 128.55576 37118 ft 585 kts 49°
2026-05-05 06:35 29.98231 128.62956 37118 ft 586 kts 49°
2026-05-05 06:36 30.03255 128.70337 37117 ft 585 kts 49°
2026-05-05 06:36 30.08278 128.77729 37119 ft 583 kts 49°
2026-05-05 06:37 30.13288 128.85116 37118 ft 583 kts 49°
2026-05-05 06:37 30.18295 128.92510 37129 ft 583 kts 49°
2026-05-05 06:38 30.23268 128.99867 37127 ft 584 kts 49°
2026-05-05 06:38 30.28284 129.07299 37124 ft 584 kts 49°
2026-05-05 06:39 30.33290 129.14734 37123 ft 585 kts 49°
2026-05-05 06:39 30.38288 129.22173 37119 ft 585 kts 49°
2026-05-05 06:40 30.43257 129.29581 37130 ft 585 kts 49°
2026-05-05 06:40 30.48250 129.37039 37120 ft 586 kts 49°
2026-05-05 06:41 30.53235 129.44498 37126 ft 586 kts 50°
2026-05-05 06:41 30.58223 129.51978 37129 ft 585 kts 50°
2026-05-05 06:42 30.62362 129.58192 37114 ft 586 kts 50°
2026-05-05 06:42 30.67359 129.65710 37129 ft 586 kts 50°
2026-05-05 06:43 30.72335 129.73212 37129 ft 586 kts 50°
2026-05-05 06:43 30.77314 129.80730 37111 ft 587 kts 50°
2026-05-05 06:44 30.82294 129.88265 37129 ft 587 kts 50°
2026-05-05 06:44 30.86886 129.96075 37128 ft 588 kts 56°
2026-05-05 06:45 30.91241 130.04192 37123 ft 590 kts 57°
2026-05-05 06:45 30.95520 130.12302 37134 ft 591 kts 57°
2026-05-05 06:46 30.96683 130.14508 37135 ft 590 kts 57°
2026-05-05 06:46 31.00971 130.22630 37130 ft 591 kts 57°
2026-05-05 06:47 31.05280 130.30786 37135 ft 591 kts 57°
2026-05-05 06:47 31.09596 130.38967 37138 ft 591 kts 57°
2026-05-05 06:48 31.13909 130.47161 37146 ft 591 kts 57°
2026-05-05 06:48 31.18185 130.55301 37121 ft 591 kts 57°
2026-05-05 06:49 31.22492 130.63515 37150 ft 592 kts 57°
2026-05-05 06:49 31.26785 130.71724 37147 ft 592 kts 57°
2026-05-05 06:50 31.31071 130.79943 37147 ft 592 kts 57°
2026-05-05 06:50 31.35356 130.88177 37142 ft 592 kts 57°
2026-05-05 06:51 31.39636 130.96414 37149 ft 591 kts 57°
2026-05-05 06:51 31.43878 131.04596 37132 ft 591 kts 57°
2026-05-05 06:52 31.48139 131.12831 37154 ft 591 kts 57°
2026-05-05 06:52 31.52391 131.21089 37144 ft 591 kts 57°
2026-05-05 06:53 31.56647 131.29350 37153 ft 592 kts 57°
2026-05-05 06:53 31.60923 131.37633 37165 ft 593 kts 57°
2026-05-05 06:54 31.65149 131.45862 37157 ft 592 kts 57°
2026-05-05 06:54 31.69391 131.54149 37157 ft 592 kts 58°
2026-05-05 06:55 31.73606 131.62439 37161 ft 592 kts 58°
2026-05-05 06:55 31.77828 131.70748 37167 ft 592 kts 58°
2026-05-05 06:56 31.82058 131.79078 37141 ft 592 kts 58°
2026-05-05 06:56 31.86247 131.87342 37162 ft 592 kts 58°
2026-05-05 06:57 31.90471 131.95693 37157 ft 593 kts 58°
2026-05-05 06:57 31.94683 132.04040 37156 ft 593 kts 58°
2026-05-05 06:58 31.98899 132.12414 37157 ft 593 kts 58°
2026-05-05 06:58 32.03070 132.20717 37136 ft 593 kts 58°
2026-05-05 06:59 32.07269 132.29094 37181 ft 593 kts 58°
2026-05-05 06:59 32.11461 132.37476 37158 ft 593 kts 58°
2026-05-05 07:00 32.15504 132.45972 37152 ft 594 kts 62°
2026-05-05 07:00 32.19130 132.54749 37172 ft 594 kts 64°
2026-05-05 07:01 32.22710 132.63545 37154 ft 594 kts 63°
2026-05-05 07:01 32.26361 132.72309 37161 ft 594 kts 63°
2026-05-05 07:02 32.30025 132.81004 37162 ft 594 kts 63°
2026-05-05 07:02 32.33721 132.89776 37168 ft 595 kts 63°
2026-05-05 07:03 32.37406 132.98561 37169 ft 595 kts 63°
2026-05-05 07:03 32.41082 133.07354 37166 ft 597 kts 63°
2026-05-05 07:04 32.44760 133.16174 37168 ft 597 kts 63°
2026-05-05 07:04 32.48431 133.25001 37158 ft 596 kts 63°
2026-05-05 07:05 32.52083 133.33803 37170 ft 596 kts 63°
2026-05-05 07:05 32.55714 133.42577 37170 ft 595 kts 63°
2026-05-05 07:06 32.59346 133.51367 37175 ft 595 kts 63°
2026-05-05 07:06 32.62974 133.60176 37173 ft 596 kts 63°
2026-05-05 07:07 32.66613 133.69026 37199 ft 596 kts 63°
2026-05-05 07:07 32.70237 133.77872 37175 ft 596 kts 63°
2026-05-05 07:08 32.73842 133.86695 37171 ft 596 kts 63°
2026-05-05 07:08 32.77459 133.95566 37188 ft 595 kts 63°
2026-05-05 07:09 32.81069 134.04451 37161 ft 597 kts 63°
2026-05-05 07:09 32.83858 134.13751 37180 ft 596 kts 73°
2026-05-05 07:10 32.86246 134.23123 37162 ft 597 kts 75°
2026-05-05 07:10 32.88573 134.32612 37184 ft 597 kts 75°
2026-05-05 07:11 32.90908 134.42124 37176 ft 597 kts 75°
2026-05-05 07:11 32.93245 134.51601 37184 ft 597 kts 75°
2026-05-05 07:12 32.95583 134.61087 37184 ft 597 kts 75°
2026-05-05 07:12 32.97913 134.70577 37180 ft 596 kts 75°
2026-05-05 07:13 33.00005 134.80068 37194 ft 595 kts 84°
2026-05-05 07:13 33.01241 134.89849 37182 ft 596 kts 85°
2026-05-05 07:14 33.02302 134.99644 37173 ft 596 kts 86°
2026-05-05 07:14 33.03327 135.09433 37181 ft 595 kts 86°
2026-05-05 07:15 33.04364 135.19240 37181 ft 596 kts 86°
2026-05-05 07:15 33.05406 135.29042 37181 ft 596 kts 86°
2026-05-05 07:16 33.06436 135.38776 37182 ft 595 kts 86°
2026-05-05 07:16 33.07465 135.48583 37150 ft 596 kts 86°
2026-05-05 07:17 33.08483 135.58372 37195 ft 594 kts 86°
2026-05-05 07:17 33.09492 135.68152 37187 ft 595 kts 86°
2026-05-05 07:18 33.10493 135.77943 37186 ft 595 kts 86°
2026-05-05 07:18 33.11488 135.87743 37191 ft 594 kts 86°
2026-05-05 07:19 33.12472 135.97511 37205 ft 594 kts 86°
2026-05-05 07:19 33.13451 136.07320 37178 ft 595 kts 86°
2026-05-05 07:20 33.14422 136.17111 37194 ft 593 kts 86°
2026-05-05 07:20 33.15384 136.26894 37195 ft 593 kts 86°
2026-05-05 07:21 33.16334 136.36637 37195 ft 593 kts 86°
2026-05-05 07:21 33.17283 136.46452 37195 ft 594 kts 86°
2026-05-05 07:22 33.18227 136.56262 37196 ft 594 kts 86°
2026-05-05 07:22 33.19160 136.66078 37183 ft 595 kts 86°
2026-05-05 07:23 33.20076 136.75818 37198 ft 593 kts 86°
2026-05-05 07:23 33.20989 136.85604 37196 ft 594 kts 86°
2026-05-05 07:24 33.21895 136.95394 37192 ft 594 kts 87°
2026-05-05 07:24 33.22797 137.05216 37195 ft 595 kts 87°
2026-05-05 07:25 33.24159 137.14996 37195 ft 597 kts 81°
2026-05-05 07:25 33.25853 137.24733 37167 ft 597 kts 80°
2026-05-05 07:26 33.27301 137.32794 37200 ft 595 kts 79°
2026-05-05 07:26 33.29030 137.42459 37195 ft 595 kts 80°
2026-05-05 07:27 33.30737 137.52131 37190 ft 595 kts 80°
2026-05-05 07:27 33.32423 137.61766 37187 ft 595 kts 80°
2026-05-05 07:28 33.34111 137.71463 37187 ft 595 kts 80°
2026-05-05 07:28 33.35791 137.81157 37180 ft 595 kts 80°
2026-05-05 07:29 33.37461 137.90832 37180 ft 595 kts 80°
2026-05-05 07:29 33.39128 138.00545 37199 ft 595 kts 80°
2026-05-05 07:30 33.40789 138.10265 37190 ft 594 kts 81°
2026-05-05 07:30 33.43245 138.24728 37188 ft 593 kts 81°
2026-05-05 07:31 33.45926 138.34072 37197 ft 593 kts 59°
2026-05-05 07:31 33.50027 138.42661 37197 ft 593 kts 57°
2026-05-05 07:32 33.54365 138.51087 37198 ft 594 kts 56°
2026-05-05 07:32 33.58718 138.59511 37206 ft 595 kts 56°
2026-05-05 07:33 33.63038 138.67984 37200 ft 595 kts 56°
2026-05-05 07:33 33.65845 138.73534 37197 ft 596 kts 56°
2026-05-05 07:34 33.69869 138.81514 37199 ft 596 kts 57°
2026-05-05 07:34 33.74163 138.90044 37208 ft 596 kts 57°
2026-05-05 07:35 33.78445 138.98577 37246 ft 597 kts 57°
2026-05-05 07:35 33.82741 139.07138 37214 ft 598 kts 56°
2026-05-05 07:36 33.87044 139.15731 37218 ft 600 kts 56°
2026-05-05 07:36 33.91342 139.24339 37217 ft 600 kts 56°
2026-05-05 07:37 33.95643 139.32977 37217 ft 600 kts 57°
2026-05-05 07:37 33.99896 139.41540 37220 ft 600 kts 57°
2026-05-05 07:38 34.04181 139.50188 37222 ft 600 kts 57°
2026-05-05 07:38 34.08786 139.58557 37224 ft 599 kts 49°
2026-05-05 07:39 34.13923 139.66479 37225 ft 597 kts 47°
2026-05-05 07:39 34.19128 139.74278 37227 ft 596 kts 47°
2026-05-05 07:40 34.24304 139.82042 37230 ft 597 kts 47°
2026-05-05 07:40 34.29494 139.89883 37227 ft 597 kts 47°
2026-05-05 07:41 34.34671 139.97745 37241 ft 597 kts 47°
2026-05-05 07:41 34.39843 140.05626 37227 ft 599 kts 47°
2026-05-05 07:42 34.45029 140.13561 37229 ft 600 kts 49°
2026-05-05 07:42 34.49615 140.22069 37232 ft 604 kts 54°
2026-05-05 07:43 34.54073 140.30654 37232 ft 604 kts 54°
2026-05-05 07:43 34.58530 140.39295 37238 ft 605 kts 55°
2026-05-05 07:44 34.60751 140.43614 36993 ft 599 kts 55°
2026-05-05 07:44 34.62956 140.47905 36114 ft 602 kts 55°
2026-05-05 07:44 34.65186 140.52248 35077 ft 609 kts 55°
2026-05-05 07:44 34.67443 140.56649 34065 ft 616 kts 55°
2026-05-05 07:45 34.69797 140.60992 33083 ft 614 kts 49°
2026-05-05 07:45 34.72700 140.64720 32377 ft 597 kts 33°
2026-05-05 07:45 34.76068 140.67483 31822 ft 571 kts 18°
2026-05-05 07:45 34.79670 140.69177 31282 ft 541 kts
2026-05-05 07:46 34.83275 140.69768 30770 ft 506 kts 347°
2026-05-05 07:46 34.86761 140.69728 30283 ft 501 kts 348°
2026-05-05 07:46 34.90239 140.69944 29701 ft 501 kts 352°
2026-05-05 07:46 34.93667 140.70300 29213 ft 496 kts 353°
2026-05-05 07:47 34.97119 140.70716 28705 ft 488 kts 353°
2026-05-05 07:47 35.00426 140.71092 28229 ft 481 kts 353°
2026-05-05 07:47 35.03744 140.71481 27744 ft 475 kts 354°
2026-05-05 07:47 35.07022 140.72136 27208 ft 486 kts
2026-05-05 07:48 35.10181 140.73774 26617 ft 501 kts 23°
2026-05-05 07:48 35.13101 140.76117 26031 ft 502 kts 28°
2026-05-05 07:48 35.15959 140.78567 25442 ft 499 kts 28°
2026-05-05 07:48 35.18797 140.80984 24854 ft 495 kts 28°
2026-05-05 07:49 35.21616 140.83363 24259 ft 491 kts 28°
2026-05-05 07:49 35.24423 140.85717 23664 ft 486 kts 28°
2026-05-05 07:49 35.27203 140.88043 23018 ft 480 kts 28°
2026-05-05 07:49 35.29911 140.90306 22401 ft 473 kts 28°
2026-05-05 07:50 35.32621 140.92570 21810 ft 466 kts 29°
2026-05-05 07:50 35.35282 140.94792 21236 ft 459 kts 29°
2026-05-05 07:50 35.37897 140.96978 20703 ft 451 kts 29°
2026-05-05 07:50 35.40469 140.99129 20134 ft 444 kts 30°
2026-05-05 07:51 35.42997 141.01244 19579 ft 437 kts 30°
2026-05-05 07:51 35.45489 141.03329 19018 ft 430 kts 30°
2026-05-05 07:51 35.47979 141.05305 18451 ft 421 kts 24°
2026-05-05 07:51 35.50636 141.06490 17794 ft 406 kts
2026-05-05 07:52 35.53402 141.06557 17282 ft 389 kts 350°
2026-05-05 07:52 35.56042 141.06081 16808 ft 379 kts 347°
2026-05-05 07:52 35.58617 141.05551 16355 ft 371 kts 347°
2026-05-05 07:52 35.61141 141.05036 15871 ft 363 kts 347°
2026-05-05 07:53 35.63615 141.04538 15422 ft 358 kts 347°
2026-05-05 07:53 35.66057 141.04051 14964 ft 353 kts 347°
2026-05-05 07:53 35.68465 141.03574 14514 ft 349 kts 348°
2026-05-05 07:53 35.70850 141.03103 14078 ft 345 kts 348°
2026-05-05 07:54 35.73180 141.02614 13468 ft 343 kts 345°
2026-05-05 07:54 35.75407 141.01628 12830 ft 339 kts 329°
2026-05-05 07:54 35.77240 140.99848 12302 ft 334 kts 311°
2026-05-05 07:54 35.78569 140.97520 11795 ft 330 kts 301°
2026-05-05 07:55 35.79702 140.95090 11484 ft 320 kts 300°
2026-05-05 07:55 35.80773 140.92757 11346 ft 304 kts 300°
2026-05-05 07:55 35.81794 140.90545 11218 ft 290 kts 300°
2026-05-05 07:55 35.82769 140.88438 11087 ft 276 kts 300°
2026-05-05 07:56 35.83705 140.86422 10949 ft 266 kts 300°
2026-05-05 07:56 35.84611 140.84472 10773 ft 259 kts 300°
2026-05-05 07:56 35.85494 140.82574 10507 ft 257 kts 300°
2026-05-05 07:56 35.86380 140.80670 10205 ft 256 kts 300°
2026-05-05 07:57 35.87264 140.78769 9900 ft 257 kts 300°
2026-05-05 07:57 35.88179 140.76804 9727 ft 269 kts 300°
2026-05-05 07:57 35.89107 140.74808 9545 ft 266 kts 300°
2026-05-05 07:57 35.90030 140.72822 9021 ft 268 kts 300°
2026-05-05 07:58 35.90960 140.70817 8644 ft 267 kts 300°
2026-05-05 07:58 35.91885 140.68824 8329 ft 269 kts 300°
2026-05-05 07:58 35.92812 140.66826 8035 ft 267 kts 300°
2026-05-05 07:58 35.93728 140.64848 7741 ft 265 kts 299°
2026-05-05 07:59 35.94643 140.62873 7431 ft 264 kts 300°
2026-05-05 07:59 35.95553 140.60907 7123 ft 262 kts 299°
2026-05-05 07:59 35.96455 140.58958 6806 ft 261 kts 299°
2026-05-05 07:59 35.97351 140.57020 6431 ft 259 kts 299°
2026-05-05 08:00 35.98203 140.55061 6081 ft 259 kts 293°
2026-05-05 08:00 35.98759 140.52987 5741 ft 257 kts 284°
2026-05-05 08:00 35.99201 140.50838 5403 ft 260 kts 283°
2026-05-05 08:00 35.99637 140.48666 5060 ft 260 kts 283°
2026-05-05 08:01 36.00074 140.46521 4780 ft 255 kts 283°
2026-05-05 08:01 36.00506 140.44386 4586 ft 258 kts 283°
2026-05-05 08:01 36.00940 140.42242 4354 ft 256 kts 282°
2026-05-05 08:01 36.01371 140.40103 4116 ft 258 kts 282°
2026-05-05 08:02 36.01807 140.37945 3892 ft 259 kts 282°
2026-05-05 08:02 36.02240 140.35819 3728 ft 254 kts 281°
2026-05-05 08:02 36.02661 140.33749 3538 ft 243 kts 281°
2026-05-05 08:02 36.03065 140.31766 3377 ft 233 kts 281°
2026-05-05 08:03 36.03450 140.29859 3195 ft 224 kts 281°
2026-05-05 08:03 36.03647 140.28003 3038 ft 212 kts 268°
2026-05-05 08:03 36.03614 140.26227 2920 ft 199 kts 258°
2026-05-05 08:03 36.03088 140.24737 2771 ft 185 kts 229°
2026-05-05 08:04 36.02022 140.23970 2657 ft 178 kts 191°
2026-05-05 08:04 36.00798 140.23876 2526 ft 178 kts 179°
2026-05-05 08:04 35.99582 140.24182 2413 ft 178 kts 162°
2026-05-05 08:04 35.98473 140.24816 2322 ft 174 kts 153°
2026-05-05 08:05 35.97442 140.25538 2208 ft 168 kts 152°
2026-05-05 08:05 35.96473 140.26243 2084 ft 156 kts 150°
2026-05-05 08:05 35.95575 140.26900 1934 ft 142 kts 150°
2026-05-05 08:05 35.94755 140.27492 1786 ft 134 kts 150°
2026-05-05 08:06 35.93939 140.28076 1676 ft 135 kts 151°
2026-05-05 08:06 35.93141 140.28649 1572 ft 134 kts 150°
2026-05-05 08:06 35.92328 140.29236 1460 ft 135 kts 152°
2026-05-05 08:06 35.91521 140.29821 1384 ft 136 kts 151°
2026-05-05 08:07 35.90709 140.30412 1265 ft 135 kts 152°
2026-05-05 08:07 35.89904 140.30999 1197 ft 133 kts 151°
2026-05-05 08:07 35.89130 140.31562 1139 ft 128 kts 151°
2026-05-05 08:07 35.88395 140.32096 1025 ft 117 kts 150°
2026-05-05 08:08 35.87710 140.32591 937 ft 110 kts 151°
2026-05-05 08:08 35.87040 140.33058 978 ft 112 kts 154°
2026-05-05 08:08 35.86365 140.33520 977 ft 113 kts 154°
2026-05-05 08:08 35.85683 140.34053 931 ft 117 kts 150°
2026-05-05 08:09 35.84977 140.34578 808 ft 118 kts 151°
2026-05-05 08:09 35.84286 140.35079 693 ft 115 kts 150°
2026-05-05 08:09 35.83609 140.35571 634 ft 109 kts 150°
2026-05-05 08:09 35.82954 140.36048 553 ft 109 kts 149°
2026-05-05 08:10 35.82293 140.36526 469 ft 114 kts 148°
2026-05-05 08:10 35.81601 140.37023 399 ft 117 kts 152°
2026-05-05 08:10 35.80910 140.37524 300 ft 116 kts 154°
2026-05-05 08:10 35.80204 140.38042 161 ft 118 kts 150°
2026-05-05 08:11 35.79591 140.38479 150 ft 83 kts 149°
2026-05-05 08:11 35.79200 140.38762 151 ft 46 kts 149°
2026-05-05 08:11 35.79038 140.38876 151 ft 10 kts 153°
2026-05-05 08:11 35.78993 140.38901 150 ft 11 kts 159°
2026-05-05 08:12 35.78880 140.38932 148 ft 13 kts 171°
2026-05-05 08:12 35.78789 140.38946 149 ft 13 kts 175°
2026-05-05 08:12 35.78693 140.38955 150 ft 15 kts 175°
2026-05-05 08:12 35.78624 140.38965 150 ft 16 kts 172°
2026-05-05 08:13 35.78498 140.39057 150 ft 16 kts 137°
2026-05-05 08:13 35.78435 140.39113 149 ft 18 kts 155°
2026-05-05 08:13 35.78315 140.39154 149 ft 19 kts 168°
2026-05-05 08:13 35.78186 140.39192 150 ft 19 kts 177°
2026-05-05 08:14 35.78081 140.39125 150 ft 16 kts 193°
2026-05-05 08:14 35.77983 140.39174 150 ft 16 kts 135°
2026-05-05 08:14 35.77926 140.39296 150 ft 17 kts 118°
2026-05-05 08:14 35.77868 140.39434 150 ft 19 kts 117°
2026-05-05 08:15 35.77766 140.39540 150 ft 20 kts 149°
2026-05-05 08:15 35.77640 140.39632 150 ft 22 kts 150°
2026-05-05 08:15 35.77551 140.39647 150 ft 8 kts 221°
2026-05-05 08:15 35.77512 140.39583 150 ft 11 kts 237°
2026-05-05 08:16 35.77449 140.39544 150 ft 11 kts 167°
2026-05-05 08:16 35.77370 140.39563 150 ft 12 kts 189°
2026-05-05 08:16 35.77287 140.39523 150 ft 14 kts 204°
2026-05-05 08:16 35.77192 140.39470 150 ft 16 kts 204°
2026-05-05 08:17 35.77084 140.39410 150 ft 15 kts 204°
2026-05-05 08:17 35.77070 140.39403 150 ft 0 kts 205°
2026-05-05 08:17 35.77067 140.39401 150 ft 3 kts 204°
2026-05-05 08:17 35.77033 140.39376 150 ft 7 kts 229°
2026-05-05 08:18 35.77017 140.39313 150 ft 9 kts 267°
2026-05-05 08:18 35.77016 140.39276 150 ft 0 kts 268°
2026-05-05 08:18 35.77016 140.39272 150 ft 3 kts 265°
2026-05-05 08:18 35.77013 140.39240 150 ft 0 kts 264°
2026-05-05 08:19 35.77012 140.39226 150 ft 4 kts 264°
2026-05-05 08:19 35.77011 140.39218 150 ft 0 kts 264°
2026-05-05 08:20 35.77011 140.39217 150 ft 0 kts 264°